Regional Weather Roundup
Issued by NWS Charleston, SC

Current Version | Previous Version | Graphics & Text | Print | Product List | Glossary On
Versions: 1 2 3 4 5 6 7 8 9 10 11 12 13 14 15 16 17 18 19 20 21 22 23 24 25 26 27 28 29 30 31 32 33 34 35 36 37 38 39 40 41 42 43 44 45 46 47 48 49 50
000
ASUS42 KCHS 221212
RWRCHS

REGIONAL WEATHER ROUNDUP
NATIONAL WEATHER SERVICE CHARLESTON SC
800 AM EDT MON MAY 22 2017

NOTE: "FAIR" INDICATES FEW OR NO CLOUDS BELOW 12,000 FEET WITH NO
SIGNIFICANT WEATHER AND/OR OBSTRUCTIONS TO VISIBILITY.

NOT ALL STATIONS ARE QUALITY CONTROLLED. USE DATA WITH CAUTION...
ESPECIALLY DEWPOINT OBSERVATIONS.

SCZ027-030-031-034>040-042>050-221300-
...SOUTHEAST SOUTH CAROLINA...

CITY           SKY/WX    TMP DP  RH WIND       PRES   REMARKS
N CHARLESTON   CLOUDY    74  71  91 S8        30.08R
6HR MIN TEMP:  72; 6HR MAX TEMP:  75; 6HR PCP:  0.01;

WATERFRONT PRK   N/A     75  73  93 SW7G15    30.06R
JOHNS ISLAND   CLOUDY    75  75 100 CALM      30.08S
PINOPOLIS        N/A     73  72  94 VRB3      30.00R
MONCKS CORNER  PTSUNNY   72  70  94 S6        30.08S
SUMMERVILLE    FAIR      72  70  94 CALM      30.09S
BEAUFORT MCAS  PTSUNNY   77  75  93 S3        30.08R
6HR MIN TEMP:  75; 6HR MAX TEMP:  77; 6HR PCP: TRACE;

BEAUFORT ARPT  PTSUNNY   75  72  88 CALM      30.08S
HILTON HEAD IS MOSUNNY   75  75 100 S3        30.10
WALTERBORO     PTSUNNY   73  72  94 S3        30.09R
ALLENDALE      FAIR      72  72 100 S3        30.06S

...SOUTHERN MIDLANDS AND PEE DEE...

CITY           SKY/WX    TMP DP  RH WIND       PRES   REMARKS
GEORGETOWN     NOT AVBL
KINGSTREE      CLOUDY    72  70  94 CALM      30.08R
ORANGEBURG     CLOUDY    73  71  93 SW5       30.08R
6HR MIN TEMP:  72; 6HR MAX TEMP:  74; 6HR PCP: TRACE;

BARNWELL       CLOUDY    73  73 100 S3        30.07S
AIKEN          FAIR      70  70 100 S5        30.10S
MANNING        NOT AVBL
COLUMBIA       CLOUDY    73  70  90 CALM      30.06S
6HR MIN TEMP:  71; 6HR MAX TEMP:  73;

SUMTER         CLOUDY    73  71  92 SW5       30.05R
6HR MIN TEMP:  71; 6HR MAX TEMP:  73;

FLORENCE       CLOUDY    72  72 100 S6        30.08R
6HR MIN TEMP:  71; 6HR MAX TEMP:  73; 6HR PCP:  0.23;

MYRTLE BEACH   PTSUNNY   77  70  78 SW12      30.09R
N MYRTLE BEACH CLOUDY    77  68  73 SW16      30.08S
6HR MIN TEMP:  75; 6HR MAX TEMP:  77;


$$

GAZ063-065-086>088-099>101-113>116-118-119-134>141-150-221300-
...SOUTHEAST GEORGIA...

CITY           SKY/WX    TMP DP  RH WIND       PRES   REMARKS
SAVANNAH ARPT  CLOUDY    75  70  84 SW7       30.08S
6HR MIN TEMP:  74; 6HR MAX TEMP:  75;

HUNTER AAF     PTSUNNY   75  75 100 S3        30.05S
6HR MIN TEMP:  74; 6HR MAX TEMP:  76;

FORT STEWART   CLOUDY    73  70  91 CALM      30.05F
6HR MIN TEMP:  71; 6HR MAX TEMP:  73; 6HR PCP: TRACE;

STATESBORO     CLOUDY    74  74 100 CALM      30.07S
SYLVANIA       PTSUNNY   73  73 100 CALM      30.08S
CLAXTON        FAIR     N/A N/A N/A CALM      30.08S

...CSRA...CENTRAL AND FAR SOUTHEAST GEORGIA...

CITY           SKY/WX    TMP DP  RH WIND       PRES   REMARKS
THOMSON        MOSUNNY   72  68  88 W3        30.12S
AUGUSTA-BUSH   PTSUNNY   72  70  93 CALM      30.06R
6HR MIN TEMP:  69; 6HR MAX TEMP:  73;

AUGUSTA-DANIEL CLOUDY    73  67  81 S3        30.07R
SWAINSBORO     FAIR      72  72 100 CALM      30.09R
VIDALIA        MOSUNNY   73  72  94 S3        30.08R
EASTMAN        CLOUDY    70  70 100 CALM      30.11R
HAZLEHURST     FAIR      74  74  99 CALM      30.07S
ALMA           CLOUDY    73  70  90 CALM      30.07S
6HR MIN TEMP:  69; 6HR MAX TEMP:  74;

WAYCROSS       PTSUNNY   74  74 100 CALM      30.07S
JESUP          FAIR      73  70  88 CALM      30.08S
BAXLEY         FAIR      72  72 100 CALM      30.08R
BRUNSWICK      SUNNY     77  73  88 S3        30.09R
SAINT SIMONS   MOSUNNY   76  73  91 CALM      30.07S
6HR MIN TEMP:  73; 6HR MAX TEMP:  79; 6HR PCP:  0.20;


$$

SCZ027-028-034-036>038-045-046-048>050-GAZ119-141-221300-
...LAKE AND SUPPLEMENTAL COASTAL OBSERVATIONS...

STATION/POSITION TIME  TEMP    WIND        PRES    WAVE   SWELL
                       AIR SEA DIR/SP/G            HT/PER HT/PER/DIR
                 (UTC) (F)     (DEG/KT/KT) (MB)    (FT/S) (FT/S/D)
WINYAH BAY       NOT AVBL
LAKE MURRAY      1120   70      CALM  /  1 1017.6R
ACE BASIN NERRS  1045   75        CALM     1018.0
FORT PULASKI     1148   76 79  250/  5/  8 1019.0R
SAPELO ISLAND    1100   74     200/  5     1018.0

$$

ANZ835-935-AMZ111-154-330-350-352-354-370-450-454-472-221300-
...C-MAN AND BUOY OBSERVATIONS...

STATION/POSITION TIME  TEMP    WIND        PRES    WAVE   SWELL
                       AIR SEA DIR/SP/G            HT/PER HT/PER/DIR
                 (UTC) (F)     (DEG/KT/KT) (MB)    (FT/S) (FT/S/D)
BUOY 41004       1150   77 77  190/ 14/ 17 1018.5R   3/ 5   2/120/ 9
BUOY 41008       1050   77 77  200/ 10/ 12 1017.9    3/ 5   2/110/ 5
FOLLY BEACH CMAN 1100   77     200/ 14/ 17 1019.1R
CAPERS NEARSHORE 1108   81 76  210/ 16/ 19 1018.0R
FRIPP NEARSHORE  1108   75 77  230/ 16/ 19 1018.0R


STATION/POSITION TIME  TEMP    WIND        PRES    WAVE   SWELL
                       AIR SEA DIR/SP/G            HT/PER HT/PER/DIR
                 (UTC) (F)     (DEG/KT/KT) (MB)    (FT/S) (FT/S/D)
5E ST. MARYS GA  1130      79                N/A     3/ 5
FRYING PAN BUOY  1150   77 78  210/ 14/ 17 1019.0R   4/10   2/ 70/10
BUOY 41025       1150   73 78  140/  6/  6 1019.5R   4/ 9   3/ 60/ 9
CAPE LOOKOUT NC  1100   72     180/  1/  2 1018.7R
BUOY 41002       1150   75 77  210/  8/ 10 1020.4R   3/ 8   3/ 50/ 8
BUOY 41010       1150   78 79  130/  6/  8 1019.6R   2/ 7   2/ 80/ 7
ST AUGUSTINE FL  1200   76 79  210/  4/  6 1019.3R


$$




USA.gov is the U.S. government's official web portal to all federal, state and local government web resources and services.